DELTA 1 DEB, 42563

Orbit data source: Space-Track

DELTA 1 DEB, 42563 is space debris in LEO originally from a launch on Sun, 23 Jul 1972 UTC launched from the Air Force Western Test Range (AFWTR). Debris objects in space refer to the collection of defunct objects orbiting the Earth. Examples of debris include non-operational satellites, rocket bodies, and fragments generated from explosions, collisions, or faulty payload assembly.

Loading next visibility...
DELTA 1 DEB details
Identifier
42563, 1972-058JW
Orbit
LEO
Last TLE update2 days ago
Origin
Flag of USGSFC (US)
ManufacturerUnknown
MissionSpacecraft
Bus & MotorUnknown
MassUnknown
Launch date (UTC)
1972-07-23 (52 years ago)
Launch vehicleUnknown
Launch site
Air Force Western Test Range (AFWTR)
Object type
Payload
Rocket body
Debris
Shape & HBRUnknown
Radar Cross SectionSmall (<0.1 m²)

Expand to show TLE details & history

TLE from 2 days ago
0 DELTA 1 DEB
1 42563U 72058JW  24345.18170636  .00000883  00000-0  77501-3 0  9994
2 42563  98.7655 135.7742 0250700  96.7742 266.2002 13.74418927547583
Epoch: 2024-12-10T04:21Z
Definitive object data (Epoch: 2024-12-10T04:21:39.429Z)
Latitude-0.00004°
Longitude-9.03451°
Altitude1,003.43 km
Speed7.342 km/s
True Right ascension09h 03m 05s
True Declination0° 00' 00"
Sunlit
Object was in daylight at TLE epoch
Visualization TLE readout
Latitude-23.11846°
Longitude168.85273°
Altitude1,054.936 km
Speed7.292 km/s
Apparent Right ascension19h 14m 48s
Apparent Declination-72° 10' 37"
Sunlit
Object is in daylight
Visualization observer readout
Local Sidereal Time21:39:11
Azimuth191.468° SSW
Elevation-24.909°
Doppler factor1
Orbital elements
Apogee altitude1,165.462 km
Perigee altitude796.476 km
Semi-major axis7,359.106 km
Eccentricity0.02507
Inclination98.7655°
RAAN135.7742°
Arg. of periapsis96.7742°
True anomaly263.34083°
Mean anomaly266.2002°
Eccentric anomaly264.76978°
Mean motion3.438 °/min
BSTAR0.00077501
Orbital period104.71 mins
Loading maneuver chart data...

DELTA 1 DEB Visibility forecast

Observer location: undefined°, undefined

Span
Click to sort rows by Start time (UTC) header in descending order
Start Az.
Max El. time (UTC)
Max El. Az.
Max El.
End time (UTC)
End Az.
6 mins2024-12-12 00:37:02.388Z332.362° NNW2024-12-12 00:40:02.388Z295.819° NW16.29°2024-12-12 00:43:02.388Z261.261° W
6 mins2024-12-12 08:57:02.388Z95.762° ESE2024-12-12 08:59:02.388Z69.917° E18.931°2024-12-12 09:03:02.388Z19.942° NNE
9 mins2024-12-12 10:38:02.388Z186.098° SSW2024-12-12 10:43:02.388Z278.198° WNW37.836°2024-12-12 10:47:02.388Z333.464° NNW
|